Jesup, GA

4:16 AM EDT on August 30, 2016 (GMT -0400)
Jesup-Wayne County

Weather History for KJES - March, 2014

Change the Weather History Date:

Monday, March 10, 2014

  Actual Average (KLHW) Record (KLHW)
Temperature  
Mean Temperature 60 °F -  
Max Temperature 77 °F 71 °F 91 °F (1974)
Min Temperature 42 °F 46 °F 32 °F (1972)
Degree Days  
Heating Degree Days 6    
Growing Degree Days 10 (Base 50)    
Moisture  
Dew Point 50 °F    
Average Humidity 75    
Maximum Humidity 100    
Minimum Humidity 44    
Precipitation  
Precipitation 0.00 in - - ()
Sea Level Pressure  
Sea Level Pressure 30.03 in    
Wind  
Wind Speed 4 mph (WNW)    
Max Wind Speed 14 mph    
Max Gust Speed 21 mph    
Visibility 10 miles    
Events      
Averages and records for this station are not official NWS values.
T = Trace of Precipitation, MM = Missing Value Source: NWS Daily Summary

Daily Weather History Graph

Daily Weather History Graph

Search for Another Location

Airport or City:

Trip Planner

Search our weather history database for the weather conditions in past years. The results will help you decide how hot, cold, wet, or windy it might be!

Date:

Astronomy

Mar. 10, 2014 Rise Set
Actual Time 7:43 AM EDT 7:32 PM EDT
Civil Twilight 7:19 AM EDT 7:56 PM EDT
Nautical Twilight 6:51 AM EDT 8:24 PM EDT
Astronomical Twilight 6:23 AM EDT 8:52 PM EDT
Moon 2:29 PM EDT (3/10) 3:39 AM EDT (3/10)
Length of Visible Light 12h 36m
Length of Day
11h 48m
Waxing Gibbous, 70% of the Moon is Illuminated
Mar 10
Waxing Gibbous
Mar 16
Full
Mar 23
Last Quarter
Mar 30
New
Apr 7
First Quarter

Hourly Weather History & Observations

Time (EDT) Temp. Windchill Dew Point Humidity Pressure Visibility Wind Dir Wind Speed Gust Speed Precip Events Conditions
12:15 AM 48.2 °F - 46.4 °F 93% 30.10 in 10.0 mi West 3.5 mph - N/A   Clear
12:35 AM 48.2 °F - 46.4 °F 93% 30.10 in 10.0 mi West 4.6 mph - N/A   Clear
12:55 AM 50.0 °F - 48.2 °F 94% 30.10 in 10.0 mi Calm Calm - N/A   Clear
1:15 AM 50.0 °F - 48.2 °F 94% 30.10 in 10.0 mi West 3.5 mph - N/A   Clear
1:35 AM 53.6 °F - 50.0 °F 88% 30.10 in 10.0 mi West 4.6 mph - N/A   Clear
1:55 AM 53.6 °F - 50.0 °F 88% 30.10 in 10.0 mi West 4.6 mph - N/A   Clear
2:15 AM 55.4 °F - 50.0 °F 82% 30.10 in 10.0 mi West 4.6 mph - N/A   Clear
2:35 AM 55.4 °F - 50.0 °F 82% 30.09 in 10.0 mi West 4.6 mph - N/A   Clear
2:55 AM 53.6 °F - 50.0 °F 88% 30.08 in 10.0 mi West 3.5 mph - N/A   Clear
3:15 AM 50.0 °F - 46.4 °F 87% 30.08 in 10.0 mi West 3.5 mph - N/A   Clear
3:35 AM 46.4 °F - 46.4 °F 100% 30.08 in 10.0 mi Calm Calm - N/A   Clear
3:55 AM 46.4 °F - 46.4 °F 100% 30.07 in 10.0 mi Calm Calm - N/A   Clear
4:15 AM 44.6 °F 43.1 °F 44.6 °F 100% 30.07 in 10.0 mi WSW 3.5 mph - N/A   Clear
4:35 AM 44.6 °F - 44.6 °F 100% 30.07 in 10.0 mi Calm Calm - N/A   Clear
4:55 AM 44.6 °F - 44.6 °F 100% 30.07 in 7.0 mi Calm Calm - N/A   Clear
5:15 AM 44.6 °F - 44.6 °F 100% 30.07 in 7.0 mi Calm Calm - N/A   Clear
5:35 AM 44.6 °F - 44.6 °F 100% 30.07 in 7.0 mi Calm Calm - N/A   Clear
5:55 AM 44.6 °F - 44.6 °F 100% 30.07 in 7.0 mi Calm Calm - N/A   Clear
6:10 AM 42.8 °F 41.1 °F 42.8 °F 100% 30.07 in 7.0 mi West 3.5 mph - N/A   Clear
6:35 AM 42.8 °F 41.1 °F 42.8 °F 100% 30.07 in 7.0 mi WNW 3.5 mph - N/A   Clear
6:55 AM 44.6 °F 43.1 °F 44.6 °F 100% 30.07 in 10.0 mi WNW 3.5 mph - N/A   Clear
7:15 AM 44.6 °F 43.1 °F 44.6 °F 100% 30.08 in 7.0 mi NW 3.5 mph - N/A   Clear
7:35 AM 44.6 °F 43.1 °F 44.6 °F 100% 30.08 in 10.0 mi NW 3.5 mph - N/A   Clear
7:55 AM 42.8 °F - 42.8 °F 100% 30.09 in 4.0 mi Calm Calm - N/A   Clear
8:15 AM 42.8 °F - 42.8 °F 100% 30.09 in 7.0 mi Calm Calm - N/A   Clear
8:35 AM 44.6 °F 42.2 °F 44.6 °F 100% 30.09 in 10.0 mi SW 4.6 mph - N/A   Clear
8:55 AM 50.0 °F - 50.0 °F 100% 30.10 in 10.0 mi Calm Calm - N/A   Clear
9:15 AM 53.6 °F - 51.8 °F 94% 30.11 in 10.0 mi Calm Calm - N/A   Clear
9:35 AM 55.4 °F - 51.8 °F 88% 30.11 in 10.0 mi West 3.5 mph - N/A   Clear
9:55 AM 59.0 °F - 51.8 °F 77% 30.11 in 10.0 mi WNW 4.6 mph - N/A   Clear
10:15 AM 60.8 °F - 50.0 °F 68% 30.11 in 10.0 mi NNW 4.6 mph - N/A   Clear
10:35 AM 62.6 °F - 50.0 °F 63% 30.10 in 10.0 mi NNW 4.6 mph - N/A   Clear
10:55 AM 64.4 °F - 50.0 °F 59% 30.10 in 10.0 mi NNW 5.8 mph - N/A   Clear
11:15 AM 66.2 °F - 50.0 °F 56% 30.10 in 10.0 mi NW 6.9 mph - N/A   Clear
11:35 AM 68.0 °F - 50.0 °F 52% 30.09 in 10.0 mi NNW 9.2 mph - N/A   Clear
11:55 AM 68.0 °F - 51.8 °F 56% 30.08 in 10.0 mi WNW 12.7 mph - N/A   Clear
12:15 PM 69.8 °F - 50.0 °F 49% 30.08 in 10.0 mi North 9.2 mph - N/A   Clear
12:35 PM 69.8 °F - 51.8 °F 53% 30.07 in 10.0 mi NW 13.8 mph 20.7 mph N/A   Clear
12:55 PM 71.6 °F - 51.8 °F 50% 30.06 in 10.0 mi WNW 9.2 mph - N/A   Clear
1:15 PM 71.6 °F - 51.8 °F 50% 30.05 in 10.0 mi WNW 9.2 mph 16.1 mph N/A   Clear
1:35 PM 71.6 °F - 51.8 °F 50% 30.04 in 10.0 mi WNW 9.2 mph - N/A   Clear
1:55 PM 73.4 °F - 51.8 °F 47% 30.03 in 10.0 mi NW 9.2 mph 16.1 mph N/A   Clear
2:15 PM 73.4 °F - 51.8 °F 47% 30.01 in 10.0 mi West 9.2 mph 16.1 mph N/A   Clear
2:35 PM 73.4 °F - 51.8 °F 47% 30.00 in 10.0 mi West 6.9 mph 20.7 mph N/A   Clear
2:55 PM 73.4 °F - 51.8 °F 47% 29.99 in 10.0 mi WNW 12.7 mph 17.3 mph N/A   Clear
3:15 PM 75.2 °F - 51.8 °F 44% 29.98 in 10.0 mi WNW 9.2 mph 16.1 mph N/A   Clear
3:35 PM 75.2 °F - 53.6 °F 47% 29.97 in 10.0 mi WNW 8.1 mph 16.1 mph N/A   Clear
3:55 PM 75.2 °F - 53.6 °F 47% 29.96 in 10.0 mi WNW 8.1 mph 17.3 mph N/A   Clear
4:15 PM 75.2 °F - 53.6 °F 47% 29.95 in 10.0 mi WNW 10.4 mph 16.1 mph N/A   Clear
4:35 PM 75.2 °F - 51.8 °F 44% 29.95 in 10.0 mi WNW 12.7 mph 18.4 mph N/A   Clear
4:55 PM 77.0 °F - 53.6 °F 44% 29.94 in 10.0 mi WNW 13.8 mph 20.7 mph N/A   Clear
5:15 PM 75.2 °F - 53.6 °F 47% 29.93 in 10.0 mi WNW 12.7 mph 19.6 mph N/A   Clear
5:35 PM 77.0 °F - 53.6 °F 44% 29.93 in 10.0 mi West 8.1 mph - N/A   Clear
5:55 PM 75.2 °F - 51.8 °F 44% 29.93 in 10.0 mi West 9.2 mph - N/A   Clear
6:15 PM 75.2 °F - 53.6 °F 47% 29.93 in 10.0 mi West 8.1 mph - N/A   Clear
6:35 PM 73.4 °F - 53.6 °F 50% 29.93 in 10.0 mi West 6.9 mph - N/A   Clear
6:55 PM 73.4 °F - 53.6 °F 50% 29.93 in 10.0 mi West 5.8 mph - N/A   Clear
7:15 PM 71.6 °F - 53.6 °F 53% 29.93 in 10.0 mi WNW 5.8 mph - N/A   Clear
7:35 PM 69.8 °F - 53.6 °F 56% 29.94 in 10.0 mi WNW 4.6 mph - N/A   Clear
7:55 PM 64.4 °F - 53.6 °F 68% 29.94 in 10.0 mi Calm Calm - N/A   Clear
8:15 PM 62.6 °F - 53.6 °F 72% 29.95 in 10.0 mi Calm Calm - N/A   Clear
8:35 PM 60.8 °F - 53.6 °F 77% 29.95 in 10.0 mi Calm Calm - N/A   Clear
8:55 PM 59.0 °F - 53.6 °F 82% 29.96 in 10.0 mi Calm Calm - N/A   Clear
9:15 PM 59.0 °F - 53.6 °F 82% 29.96 in 10.0 mi Calm Calm - N/A   Clear
9:35 PM 57.2 °F - 51.8 °F 82% 29.96 in 10.0 mi West 3.5 mph - N/A   Clear
9:55 PM 55.4 °F - 51.8 °F 88% 29.96 in 10.0 mi Calm Calm - N/A   Clear
10:15 PM 55.4 °F - 51.8 °F 88% 29.97 in 10.0 mi Calm Calm - N/A   Clear
10:35 PM 53.6 °F - 51.8 °F 94% 29.97 in 10.0 mi Calm Calm - N/A   Clear
10:55 PM 51.8 °F - 51.8 °F 100% 29.98 in 10.0 mi Calm Calm - N/A   Clear
11:15 PM 51.8 °F - 50.0 °F 94% 29.97 in 10.0 mi WSW 4.6 mph - N/A   Clear
11:35 PM 55.4 °F - 51.8 °F 88% 29.97 in 10.0 mi Calm Calm - N/A   Clear
11:55 PM 51.8 °F - 50.0 °F 94% 29.97 in 10.0 mi Calm Calm - N/A   Clear